Flag for Germany Weather past 2 weeks in Zeitz, Saxony-Anhalt, Germany

Now
46 °F

Low clouds.


Feels Like: 44 °F
Forecast: 38 / 54 °F
Wind: 6 mph from Northwest

Location: Gera-Leumnitz

Current Time: Oct 23, 2014 at 7:32:27 AM

Latest Report: Oct 23, 2014 at 7:00 AM


Visibility: 6 mi

Pressure: 30.07 "Hg

Humidity: 94%

Dew point: 45 °F

Location of ZeitzLocation

Historic Weather in Zeitz — Graph

°F

Zeitz temperature yesterday

Maximum temperature yesterday: 50 °F (at 11:00 PM)
Minimum temperature yesterday: 39 °F (at 8:00 AM)
Average temperature yesterday: 45 °F

Past Weeks' High & Low Weather Summary

 TemperatureHumidityPressure
High76 °F (Oct 9, 4:00 PM)99% (Oct 11, 8:00 AM)30.24 "Hg (Oct 11, 8:00 AM)
Low39 °F (Oct 22, 8:00 AM)49% (Oct 9, 5:00 PM)29.50 "Hg (Oct 21, 9:00 PM)
Average56 °F83%29.89 "Hg
* Reported Oct 8 6:00 AM — Oct 23 6:00 AM, Zeitz, Weather by CustomWeather, © 2014

Note: Actual official high and low records may vary slightly from our data, if they occured in-between our weather recording intervals... More about our weather records

Advertising

Zeitz weather history for previous 24 hours

 ConditionsComfort  
Time TempWeatherWind HumidityBarometerVisibility
6:00 AM
Oct 23
46 °FLow clouds.7 mph96%30.05 "Hg5 mi
5:00 AM47 °FLow clouds.7 mph94%30.03 "Hg6 mi
4:00 AM47 °FLow clouds.8 mph94%30.01 "Hg5 mi
3:00 AM47 °FDrizzle. Low clouds.8 mph95%29.99 "Hg5 mi
2:00 AM48 °FLight freezing rain. Low clouds.6 mph96%29.97 "Hg2 mi
1:00 AM48 °FLight freezing rain. Low clouds.7 mph97%29.95 "Hg3 mi
12:00 AM49 °FLight freezing rain. Low clouds.7 mph96%29.93 "Hg2 mi
11:00 PM
Oct 22
50 °FLight freezing rain. Low clouds.8 mph96%29.90 "Hg1 mi
10:00 PM49 °FLight freezing rain. Low clouds.8 mph97%29.87 "Hg2 mi
9:00 PM49 °FRain. Low clouds.8 mph96%29.82 "Hg4 mi
8:00 PM46 °FRain. Low clouds.9 mph98%29.80 "Hg2 mi
7:00 PM45 °FLight rain. Low clouds.7 mph98%29.80 "Hg2 mi
6:00 PM44 °FRain. Low clouds.7 mph97%29.78 "Hg3 mi
5:00 PM43 °FRain. Low clouds.6 mph96%29.78 "Hg2 mi
4:00 PM42 °FLight rain. Low clouds.7 mph94%29.78 "Hg4 mi
3:00 PM42 °FLight rain. Low clouds.9 mph91%29.78 "Hg5 mi
2:00 PM43 °FRain. Low clouds.9 mph92%29.78 "Hg5 mi
1:00 PM45 °FSprinkles. Overcast.9 mph81%29.77 "Hg9 mi
12:00 PM45 °FOvercast.9 mph79%29.78 "Hg22 mi
11:00 AM45 °FOvercast.10 mph83%29.78 "Hg16 mi
10:00 AM43 °FSprinkles. Low clouds.9 mph90%29.78 "Hg7 mi
9:00 AM40 °FLight rain. Low clouds.6 mph93%29.79 "Hg28 mi
8:00 AM39 °FLight rain. Low clouds.8 mph91%29.78 "Hg8 mi
7:00 AM44 °FLight rain. Overcast.8 mph76%29.73 "Hg31 mi
Weather by CustomWeather, © 2014

See weather overviewHow to use our weather pages